Redwood City, CA

9:09 AM PDT on September 26, 2016 (GMT -0700)
San Carlos

Weather History for KSQL - July, 2013

Change the Weather History Date:

Friday, July 12, 2013

  Actual Average Record
Temperature  
Mean Temperature 66 °F -  
Max Temperature 75 °F 84 °F 102 °F (1972)
Min Temperature 57 °F 54 °F 47 °F (1973)
Cooling Degree Days 1    
Growing Degree Days 16 (Base 50)    
Moisture  
Dew Point 51 °F    
Average Humidity 70    
Maximum Humidity 82    
Minimum Humidity 34    
Precipitation  
Precipitation 0.00 in - - ()
Sea Level Pressure  
Sea Level Pressure 29.93 in    
Wind  
Wind Speed 6 mph (WNW)    
Max Wind Speed 17 mph    
Max Gust Speed -    
Visibility 10 miles    
Events      
Averages and records for this station are not official NWS values.
T = Trace of Precipitation, MM = Missing Value Source: NWS Daily Summary

Daily Weather History Graph

Daily Weather History Graph

Search for Another Location

Airport or City:

Trip Planner

Search our weather history database for the weather conditions in past years. The results will help you decide how hot, cold, wet, or windy it might be!

Date:

Astronomy

Jul. 12, 2013 Rise Set
Actual Time 5:58 AM PDT 8:31 PM PDT
Civil Twilight 5:27 AM PDT 9:01 PM PDT
Nautical Twilight 4:49 AM PDT 9:39 PM PDT
Astronomical Twilight 4:07 AM PDT 10:21 PM PDT
Moon 10:13 AM PDT (7/12) 10:51 PM PDT (7/12)
Length of Visible Light 15h 33m
Length of Day
14h 33m
Waxing Crescent, 18% of the Moon is Illuminated
Jul 12
Waxing Crescent
Jul 15
First Quarter
Jul 22
Full
Jul 29
Last Quarter
Aug 6
New

Hourly Weather History & Observations

Time (PDT) Temp. Dew Point Humidity Pressure Visibility Wind Dir Wind Speed Gust Speed Precip Events Conditions
12:15 AM 57.2 °F 51.8 °F 82% 29.94 in 10.0 mi West 4.6 mph - N/A   Clear
12:35 AM 57.2 °F 51.8 °F 82% 29.94 in 10.0 mi WNW 5.8 mph - N/A   Scattered Clouds
12:50 AM 57.2 °F 51.8 °F 82% 29.94 in 10.0 mi WSW 3.5 mph - N/A   Mostly Cloudy
1:15 AM 59.0 °F 53.6 °F 82% 29.94 in 10.0 mi WSW 4.6 mph - N/A   Overcast
1:35 AM 59.0 °F 53.6 °F 82% 29.93 in 10.0 mi West 6.9 mph - N/A   Overcast
1:50 AM 59.0 °F 53.6 °F 82% 29.93 in 10.0 mi West 5.8 mph - N/A   Overcast
2:15 AM 57.2 °F 51.8 °F 82% 29.93 in 10.0 mi West 6.9 mph - N/A   Overcast
2:35 AM 57.2 °F 50.0 °F 77% 29.94 in 10.0 mi West 6.9 mph - N/A   Overcast
2:50 AM 57.2 °F 50.0 °F 77% 29.94 in 10.0 mi West 6.9 mph - N/A   Overcast
3:15 AM 57.2 °F 51.8 °F 82% 29.93 in 10.0 mi West 6.9 mph - N/A   Overcast
3:35 AM 57.2 °F 51.8 °F 82% 29.93 in 10.0 mi West 4.6 mph - N/A   Overcast
3:50 AM 57.2 °F 51.8 °F 82% 29.93 in 10.0 mi West 4.6 mph - N/A   Overcast
4:15 AM 57.2 °F 51.8 °F 82% 29.93 in 10.0 mi West 4.6 mph - N/A   Overcast
4:35 AM 57.2 °F 51.8 °F 82% 29.93 in 10.0 mi SW 3.5 mph - N/A   Overcast
4:50 AM 59.0 °F 51.8 °F 77% 29.93 in 10.0 mi SSW 4.6 mph - N/A   Overcast
5:15 AM 59.0 °F 53.6 °F 82% 29.93 in 10.0 mi SW 5.8 mph - N/A   Overcast
5:35 AM 59.0 °F 53.6 °F 82% 29.93 in 10.0 mi SSW 4.6 mph - N/A   Overcast
5:55 AM 59.0 °F 53.6 °F 82% 29.93 in 10.0 mi SSW 4.6 mph - N/A   Overcast
6:10 AM 59.0 °F 53.6 °F 82% 29.93 in 9.0 mi SW 5.8 mph - N/A   Overcast
6:35 AM 57.2 °F 50.0 °F 77% 29.94 in 10.0 mi NW 5.8 mph - N/A   Overcast
6:47 AM 57.2 °F 50.0 °F 77% 29.94 in 10.0 mi West 5.8 mph - N/A   Overcast
6:55 AM 57.2 °F 50.0 °F 77% 29.94 in 10.0 mi West 5.8 mph - N/A   Overcast
7:47 AM 57.2 °F 51.8 °F 82% 29.95 in 10.0 mi WNW 5.8 mph - N/A   Mostly Cloudy
8:17 AM 59.0 °F 51.8 °F 77% 29.95 in 10.0 mi NW 5.8 mph - N/A   Scattered Clouds
8:48 AM 59.0 °F 53.6 °F 82% 29.95 in 10.0 mi NNE 5.8 mph - N/A   Scattered Clouds
9:47 AM 64.4 °F 51.8 °F 64% 29.95 in 10.0 mi NW 9.2 mph - N/A   Partly Cloudy
10:49 AM 66.2 °F 51.8 °F 60% 29.95 in 10.0 mi NW 10.4 mph - N/A   Partly Cloudy
11:52 AM 68.0 °F 53.6 °F 60% 29.95 in 10.0 mi NW 8.1 mph - N/A   Clear
12:50 PM 69.8 °F 55.4 °F 60% 29.94 in 10.0 mi North 9.2 mph - N/A   Clear
1:51 PM 73.4 °F 55.4 °F 53% 29.93 in 10.0 mi NNW 8.1 mph - N/A   Clear
2:58 PM 75.2 °F 51.8 °F 44% 29.91 in 10.0 mi West 13.8 mph - N/A   Clear
3:52 PM 75.2 °F 51.8 °F 44% 29.90 in 10.0 mi WNW 17.3 mph - N/A   Clear
4:53 PM 73.4 °F 50.0 °F 44% 29.89 in 10.0 mi West 13.8 mph - N/A   Clear
5:47 PM 75.2 °F 46.4 °F 36% 29.88 in 10.0 mi WNW 15.0 mph - N/A   Clear
6:55 PM 75.2 °F 44.6 °F 34% 29.88 in 10.0 mi WNW 8.1 mph - N/A   Clear
7:47 PM 71.6 °F 48.2 °F 43% 29.89 in 10.0 mi WNW 5.8 mph - N/A   Clear
8:55 PM 64.4 °F 50.0 °F 59% 29.90 in 10.0 mi North 5.8 mph - N/A   Clear
9:10 PM 62.6 °F 50.0 °F 63% 29.90 in 10.0 mi NNW 4.6 mph - N/A   Clear
9:35 PM 62.6 °F 50.0 °F 63% 29.91 in 10.0 mi NNW 3.5 mph - N/A   Clear
9:55 PM 60.8 °F 50.0 °F 68% 29.92 in 10.0 mi North 5.8 mph - N/A   Clear
10:10 PM 60.8 °F 50.0 °F 68% 29.92 in 10.0 mi NNW 4.6 mph - N/A   Clear
10:35 PM 59.0 °F 50.0 °F 72% 29.92 in 10.0 mi NNW 3.5 mph - N/A   Clear
10:55 PM 59.0 °F 50.0 °F 72% 29.93 in 10.0 mi NW 3.5 mph - N/A   Clear
11:15 PM 59.0 °F 50.0 °F 72% 29.93 in 10.0 mi Calm Calm - N/A   Clear
11:35 PM 59.0 °F 50.0 °F 72% 29.93 in 10.0 mi North 4.6 mph - N/A   Clear
11:55 PM 57.2 °F 50.0 °F 77% 29.93 in 10.0 mi North 3.5 mph - N/A   Clear